Content
SEND FEEDBACK

Daily
Averages
Monthly
Summary
United States of America

NEW MARKET, VIRGINIA


Home > North America > United States > Virginia
Elevation: 951 feet     Latitude: 38 39N     Longitude: 078 43W

WEATHER
 
SELECT A DAY
Number of Records: 456,998;   Date Range: 1/1/95 - 9/18/14
 
SHARE

PRINT THIS DATA

[ ← Previous Day ]
WEATHER ALMANAC - JANUARY 23, 2013
[ Next Day → ]
[ °C ]   °F
Weather ElementAverageHighLow
Temperature20.9 °F32 °F (3:55 pm)6.6 °F (6:35 am)
Dewpoint2.9 °F22.3 °F (11:55 pm)-7.6 °F (2:55 pm)
Humidity52 %83 % (11:55 pm)19 % (2:35 pm)
Barometer30.18 in30.28 in (7:55 am)30.04 in (11:55 pm)
Wind Speed2.3 mph10.4 mph (2:15 pm)
Wind Gust16.1 mph (2:35 pm)
Weather ElementAverage
Visibility9.6 mi
Wind DirectionE (89.2 °)

Weather ElementTotal
Precipitation---
Heating Degree Days45.7 (Base 65)
Averaged from 71 records on January 23, 2013
WEATHER CONDITIONS BREAKOUT
WIND DIRECTION BREAKOUT
WEATHER BY HOUR - JANUARY 23, 2013
[ °C ]   °F
Local TimeTemperatureDewpointHumidityBarometerVisibilityWind DirectionWind SpeedGust SpeedPrecipitationEventsConditions
12:35 AM11.5 °F2.7 °F68 %30.23 in10.0 miCalmClear
12:55 AM9.5 °F3.4 °F76 %30.23 in10.0 miCalmClear
1:15 AM10.4 °F3.2 °F73 %30.23 in10.0 miCalmClear
1:35 AM12.2 °F2.3 °F65 %30.23 in10.0 miCalmClear
1:55 AM9.9 °F2.7 °F73 %30.24 in10.0 miCalmClear
2:15 AM10.0 °F2.7 °F72 %30.24 in10.0 miCalmClear
2:35 AM10.4 °F2.8 °F72 %30.24 in10.0 miCalmClear
2:55 AM9.9 °F2.3 °F71 %30.25 in10.0 miCalmClear
3:15 AM9.7 °F3.0 °F74 %30.24 in10.0 miCalmClear
3:35 AM9.5 °F3.2 °F76 %30.24 in10.0 miCalmClear
3:55 AM9.1 °F3.6 °F78 %30.24 in10.0 miCalmClear
4:15 AM7.7 °F2.8 °F81 %30.24 in10.0 miCalmClear
4:35 AM7.7 °F2.5 °F79 %30.24 in10.0 miCalmClear
4:55 AM8.8 °F3.9 °F81 %30.24 in10.0 miCalmClear
5:15 AM8.1 °F3.0 °F80 %30.25 in10.0 miCalmClear
5:35 AM8.6 °F3.4 °F79 %30.25 in10.0 miCalmClear
5:55 AM7.5 °F2.5 °F80 %30.25 in10.0 miCalmClear
6:15 AM7.2 °F2.7 °F82 %30.25 in10.0 miCalmClear
6:35 AM6.6 °F1.9 °F81 %30.26 in10.0 miCalmClear
6:55 AM7.7 °F2.8 °F81 %30.26 in10.0 miCalmClear
7:15 AM7.3 °F2.3 °F80 %30.27 in10.0 miCalmClear
7:35 AM7.7 °F2.7 °F80 %30.27 in10.0 miCalmClear
7:55 AM8.4 °F3.0 °F79 %30.28 in10.0 miCalmClear
8:15 AM10.0 °F4.6 °F79 %30.27 in10.0 miCalmClear
8:35 AM12.6 °F5.4 °F73 %30.27 in10.0 miCalmClear
8:55 AM14.5 °F4.8 °F65 %30.28 in10.0 miCalmClear
9:15 AM16.2 °F2.7 °F55 %30.28 in10.0 miCalmClear
9:35 AM17.8 °F3.9 °F55 %30.28 in10.0 miCalmClear
9:55 AM18.9 °F3.2 °F51 %30.28 in10.0 miCalmClear
10:15 AM20.3 °F0.0 °F41 %30.28 in10.0 miWest (260°)4.6 mphClear
10:35 AM21.0 °F-2.2 °F36 %30.28 in10.0 miCalmClear
10:55 AM22.1 °F-2.2 °F35 %30.27 in10.0 miWest (260°)4.6 mphClear
11:15 AM23.0 °F-2.7 °F32 %30.26 in10.0 miSW (230°)8.1 mphClear
11:35 AM23.9 °F-3.3 °F31 %30.24 in10.0 miWSW (250°)9.2 mphClear
11:55 AM23.5 °F-2.9 °F32 %30.24 in10.0 miCalmMostly Cloudy
12:15 PM25.5 °F-2.4 °F30 %30.22 in10.0 miSSW (210°)6.9 mphOvercast
12:35 PM26.1 °F-3.5 °F28 %30.20 in10.0 miCalmOvercast
12:55 PM27.0 °F-2.9 °F27 %30.18 in10.0 miSW (230°)4.6 mphOvercast
1:15 PM26.6 °F-3.3 °F27 %30.17 in10.0 miSW (230°)9.2 mphOvercast
1:35 PM27.1 °F-3.5 °F27 %30.16 in10.0 miSouth (190°)9.2 mphOvercast
1:55 PM28.2 °F-4.9 °F24 %30.16 in10.0 miWSW (240°)8.1 mphOvercast
2:15 PM31.1 °F-5.4 °F21 %30.14 in10.0 miWest (260°)10.4 mphOvercast
2:35 PM31.5 °F-7.2 °F19 %30.13 in10.0 miWest (260°)10.4 mph16.1 mphMostly Cloudy
2:55 PM29.8 °F-7.6 °F20 %30.13 in10.0 miSW (230°)4.6 mphOvercast
3:15 PM30.7 °F-7.6 °F19 %30.13 in10.0 miWest (280°)5.8 mphOvercast
3:35 PM30.9 °F-6.9 °F19 %30.13 in10.0 miWest (280°)4.6 mphOvercast
3:55 PM32.0 °F-6.0 °F19 %30.12 in10.0 miSW (230°)9.2 mphOvercast
4:15 PM31.5 °F-7.2 °F19 %30.11 in10.0 miCalmOvercast
4:35 PM31.5 °F-6.5 °F19 %30.11 in10.0 miCalmOvercast
4:55 PM30.9 °F-5.3 °F21 %30.12 in10.0 miCalmOvercast
5:15 PM30.6 °F-3.6 °F23 %30.12 in10.0 miCalmOvercast
5:35 PM30.7 °F-3.3 °F23 %30.11 in10.0 miCalmOvercast
5:55 PM30.7 °F-1.3 °F25 %30.11 in10.0 miWest (260°)5.8 mphOvercast
6:15 PM30.2 °F1.4 °F29 %30.11 in10.0 miWest (270°)3.5 mphOvercast
6:35 PM30.2 °F2.1 °F30 %30.11 in10.0 miCalmOvercast
6:55 PM30.2 °F3.2 °F32 %30.10 in10.0 miWest (260°)4.6 mphOvercast
7:15 PM30.0 °F4.5 °F34 %30.09 in10.0 miWest (260°)4.6 mphOvercast
7:35 PM29.7 °F5.2 °F35 %30.10 in10.0 miCalmOvercast
7:55 PM29.3 °F6.3 °F38 %30.09 in10.0 miCalmOvercast
8:15 PM29.3 °F7.7 °F40 %30.09 in10.0 miCalmOvercast
8:35 PM29.3 °F8.6 °F42 %30.09 in10.0 miCalmOvercast
8:55 PM29.8 °F11.7 °F47 %30.09 in10.0 miWSW (250°)6.9 mphOvercast
9:15 PM29.7 °F14.2 °F53 %30.08 in10.0 miSW (230°)6.9 mphOvercast
9:35 PM29.3 °F14.9 °F55 %30.07 in10.0 miSW (230°)3.5 mphOvercast
9:55 PM29.1 °F16.0 °F58 %30.07 in10.0 miWSW (240°)4.6 mphOvercast
10:15 PM28.9 °F17.6 °F63 %30.07 in10.0 miSW (230°)5.8 mphOvercast
10:35 PM28.4 °F18.9 °F67 %30.07 in5.0 miSW (230°)4.6 mphSnowLight Snow
10:55 PM27.9 °F20.3 °F73 %30.07 in5.0 miSW (230°)3.5 mphSnowLight Snow
11:15 PM27.5 °F21.4 °F78 %30.06 in4.0 miCalmSnowLight Snow
11:35 PM27.1 °F21.9 °F81 %30.05 in3.0 miCalmSnowLight Snow
11:55 PM26.8 °F22.3 °F83 %30.04 in4.0 miCalmSnowLight Snow
Hourly data recorded from KSHD, located miles away from New Market, Virginia







STORIES FROM OUR PARTNERS